User: anonymous   Login
Location: Unspecified
(0.0000°N, 0.0000°E)
Time: 01:39:19
(UTC+01:00)
Language:

Cosmos 2263 Rocket - Orbit

View from above orbital plane
View from above orbital plane
View from above satellite
View from above satellite

Ground track
Ground track

The orbit data is extracted from the following two-line orbital elements,

1 22803U 93059B   17347.13546133 -.00000016  00000-0  15905-4 0  9991
2 22803  70.9905 232.3497 0015068 116.5962 243.6707 14.16787199253627
Epoch (UTC): 13 December 2017 03:15:03
Eccentricity: 0.0015068
inclination: 70.9905°
perigee height: 825 km
apogee height: 847 km
right ascension of ascending node: 232.3497°
argument of perigee: 116.5962°
revolutions per day: 14.16787199
mean anomaly at epoch: 243.6707°
orbit number at epoch: 25362

The dashed part of the orbit path shows where the satellite is in the earth's shadow,  

DLR